{"data":{"norad_id":65558,"intl_designator":"2025-201J","name":"GEESAT-5 09","alt_names":[],"object_type":"PAYLOAD","status":"ACTIVE","operator":null,"country":"PRC","launch_date":"2025-09-08","launch_site_code":"YSLA","launch_vehicle":null,"mission":null,"orbit_class":"UNKNOWN","rcs_meters":null,"size_class":null,"mass_kg":null,"dimensions":null,"purposes":[],"wikipedia_slug":null,"has_3d_model":false,"image_url":null,"decayed_at":null,"tle_current":{"epoch":"2026-05-24T23:47:44.976192Z","epoch_age_seconds":75904,"freshness":"FRESH","line1":"1 65558U 25201J   26144.99149278  .00001182  00000+0  16730-3 0  9996","line2":"2 65558  49.9796 146.4808 0008420 181.8206 178.2703 14.84071778 38350","mean_motion":14.84071778,"eccentricity":0.000842,"inclination_deg":49.9796,"raan_deg":146.4808,"arg_perigee_deg":181.8206,"mean_anomaly_deg":178.2703,"bstar":0.0001673,"rev_number":3835,"period_min":97.030347274753,"perigee_km":610.61142019583,"apogee_km":622.39039042838,"semimajor_km":6994.6379053121,"source":"CELESTRAK","updated_at":"2026-05-25T13:38:05.516352Z"}}}